Weather History for KCNK - August, 2013

Change the Weather History Date:

Wednesday, August 7, 2013

  Actual Average Record
Temperature  
Mean Temperature 75 °F 78 °F  
Max Temperature 83 °F 90 °F 110 °F (1946)
Min Temperature 66 °F 67 °F 50 °F (1989)
Degree Days  
Heating Degree Days 0 0  
Month to date heating degree days 0 0  
Since 1 June heating degree days 22 13  
Since 1 July heating degree days 7 0  
Cooling Degree Days 10 13  
Month to date cooling degree days 72 96  
Year to date cooling degree days 824 886  
Since 1 June cooling degree days 721 797  
Growing Degree Days 26 (Base 50)    
Moisture  
Dew Point 68 °F    
Average Humidity 76    
Maximum Humidity 93    
Minimum Humidity 58    
Precipitation  
Precipitation 0.00 in 0.11 in 2.69 in (1908)
Month to date precipitation 5.37 0.75  
Year to date precipitation 22.36 18.71  
Snow  
Snow 0.00 in 0.00 in 0.00 in ()
Month to date snowfall 0.0 0.0  
Year to date snowfall 20.3 13.7  
Since 1 July snowfall 0.0 0.0  
Snow Depth 0.00 in    
Sea Level Pressure  
Sea Level Pressure 29.90 in    
Wind  
Wind Speed 5 mph (NE)    
Max Wind Speed 14 mph    
Max Gust Speed 20 mph    
Visibility 10 miles    
Events      
T = Trace of Precipitation, MM = Missing Value Source: NWS Daily Summary

Daily Weather History Graph

Daily Weather History Graph

Search for Another Location

Airport or City:

Trip Planner

Search our weather history database for the weather conditions in past years. The results will help you decide how hot, cold, wet, or windy it might be!

Date:

Astronomy

Aug. 07, 2013 Rise Set
Actual Time 6:35 AM CDT 8:36 PM CDT
Civil Twilight 6:06 AM CDT 9:05 PM CDT
Nautical Twilight 5:30 AM CDT 9:41 PM CDT
Astronomical Twilight 4:51 AM CDT 10:20 PM CDT
Moon 7:25 AM CDT (8/7) 8:44 PM CDT (8/7)
Length of Visible Light 14h 59m
Length of Day
14h 00m
New Moon, 1% of the Moon is Illuminated
Aug 7
New Moon
Aug 14
First Quarter
Aug 20
Full
Aug 28
Last Quarter
Sep 5
New

Hourly Weather History & Observations

Time (CDT) Temp. Heat Index Dew Point Humidity Pressure Visibility Wind Dir Wind Speed Gust Speed Precip Events Conditions
12:55 AM 75.9 °F - 72.0 °F 87% 29.83 in 10.0 mi NNE 3.5 mph - N/A   Clear
1:55 AM 75.9 °F - 71.1 °F 85% 29.82 in 10.0 mi Calm Calm - N/A   Partly Cloudy
2:55 AM 73.9 °F - 71.1 °F 91% 29.82 in 10.0 mi Calm Calm - N/A   Clear
3:55 AM 73.9 °F - 71.1 °F 91% 29.81 in 10.0 mi North 6.9 mph - N/A   Clear
4:55 AM 73.9 °F - 70.0 °F 87% 29.83 in 10.0 mi NE 5.8 mph - N/A   Clear
5:55 AM 72.0 °F - 70.0 °F 93% 29.86 in 10.0 mi North 5.8 mph - N/A   Mostly Cloudy
6:20 AM 73.4 °F - 69.8 °F 88% 29.91 in 10.0 mi North 5.8 mph - N/A   Mostly Cloudy
6:33 AM 73.4 °F - 71.6 °F 94% 29.91 in 10.0 mi North 6.9 mph - N/A   Scattered Clouds
6:55 AM 73.0 °F - 70.0 °F 90% 29.87 in 10.0 mi North 9.2 mph - N/A   Clear
7:55 AM 72.0 °F - 68.0 °F 87% 29.91 in 10.0 mi North 4.6 mph - N/A   Clear
8:55 AM 72.0 °F - 66.9 °F 84% 29.94 in 10.0 mi WNW 8.1 mph - N/A   Scattered Clouds
9:55 AM 73.9 °F - 64.9 °F 73% 29.93 in 10.0 mi North 12.7 mph - N/A   Partly Cloudy
10:55 AM 73.0 °F - 64.9 °F 76% 29.90 in 10.0 mi ENE 11.5 mph - N/A   Partly Cloudy
11:55 AM 73.9 °F - 64.0 °F 71% 29.94 in 10.0 mi East 3.5 mph - N/A   Scattered Clouds
12:55 PM 75.0 °F - 64.9 °F 71% 29.94 in 10.0 mi East 10.4 mph - N/A   Mostly Cloudy
1:55 PM 75.9 °F - 66.0 °F 71% 29.96 in 10.0 mi Calm Calm - N/A   Clear
2:55 PM 78.1 °F - 66.9 °F 68% 29.96 in 10.0 mi Calm Calm - N/A   Clear
3:55 PM 81.0 °F 83.3 °F 66.9 °F 62% 29.95 in 10.0 mi Variable 4.6 mph - N/A   Clear
4:55 PM 82.0 °F 84.5 °F 66.9 °F 60% 29.94 in 10.0 mi Calm Calm - N/A   Clear
5:55 PM 82.0 °F 85.5 °F 69.1 °F 65% 29.93 in 10.0 mi East 3.5 mph - N/A   Clear
6:55 PM 80.1 °F 82.1 °F 66.0 °F 62% 29.91 in 10.0 mi East 3.5 mph - N/A   Clear
7:55 PM 79.0 °F - 68.0 °F 69% 29.92 in 10.0 mi NE 3.5 mph - N/A   Clear
8:55 PM 73.0 °F - 64.9 °F 76% 29.94 in 10.0 mi NE 4.6 mph - N/A   Clear
9:55 PM 72.0 °F - 64.0 °F 76% 29.95 in 10.0 mi ENE 4.6 mph - N/A   Clear
10:55 PM 69.1 °F - 63.0 °F 81% 29.95 in 10.0 mi East 4.6 mph - N/A   Clear
11:55 PM 66.9 °F - 62.1 °F 84% 29.96 in 10.0 mi East 3.5 mph - N/A   Clear